[[{"header":{"parameterUnit":"m.s-1","parameterCategory":1,"la1":30.2991,"la2":30.254,"lo1":-89.0895,"lo2":-89.0444,"dy":0.0017,"dx":0.0017,"nx":28,"ny":28,"refTime":"2024-03-07T03:00:00:Z","depth":0,"parameterNumber":2,"parameterNumberName":"U-component_of_WINDS"},"data":[0,0,0,0,0,0,0,0,0,0,0,0,0,0,0,0,0,0,0,0,0,0,0,0,0,0,0,0,0,0,0,0,0,0,0,0,0,0,0,0,0,0,0,0,0,0,0,0,0,0,0,0,0,0,0,0,0,0,0.7665,0.7666,0,0.7795,0.7796,0.7798,0.781,0.7809,0.7808,0.7806,0.7944,0.7948,0.7953,0,0,0,0,0,0,0,0,0,0,0,0,0,0.743,0.7435,0.7665,0.7666,0.7668,0.7795,0.7797,0.7798,0.7811,0.7809,0.7807,0.7806,0.7942,0.7948,0.7954,0,0,0,0,0,0,0,0,0,0,0,0,0,0.7544,0.7436,0.7664,0.7689,0.7693,0.7794,0.7797,0.7799,0.7811,0.7809,0.7807,0.7805,0.794,0.7947,0.7954,0.8041,0,0,0.7977,0.798,0,0,0,0,0,0,0,0,0.7537,0.7552,0.7684,0.7688,0.7692,0.7784,0.7764,0.788,0.7812,0.7766,0.7806,0.7804,0.7892,0.7904,0.7933,0.8048,0.8054,0.7978,0.7982,0.7985,0.7988,0,0,0,0,0,0,0,0.7529,0.7547,0.7716,0.7686,0.7691,0.7695,0.7709,0.7786,0.7839,0.777,0.7771,0.7786,0.7894,0.7926,0.7936,0.8056,0.7978,0.7984,0.7989,0.7992,0.825,0.8252,0,0,0,0,0,0,0.7516,0.754,0.7712,0.772,0.7608,0.7701,0.7716,0.7757,0.7839,0.7849,0.7788,0.7786,0.7914,0.7927,0.7941,0.8048,0.7985,0.7992,0.7997,0.8247,0.825,0.8253,0,0,0,0,0,0,0.7511,0.7532,0.7707,0.7631,0.7653,0.7707,0.7752,0.776,0.7792,0.7852,0.7862,0.781,0.7913,0.7931,0.8016,0.8053,0.7996,0.8002,0.8244,0.8248,0.8251,0.8264,0,0,0,0,0,0,0.7504,0.753,0.7562,0.7631,0.7657,0.7779,0.7755,0.7764,0.7804,0.7803,0.7875,0.7885,0.7913,0.8005,0.8024,0.8062,0.8008,0.8241,0.8246,0.825,0.826,0.8267,0.8273,0,0,0,0,0,0.7496,0.7561,0.7564,0.7585,0.7699,0.7781,0.7796,0.7825,0.7807,0.7841,0.788,0.7883,0.8046,0.8014,0.8035,0.8076,0.8239,0.8245,0.825,0.8257,0.8266,0.8273,0,0,0,0,0,0,0.7497,0.7571,0.7574,0.7664,0.7716,0.7783,0.7826,0.7833,0.7892,0.7889,0.7924,0.794,0.8025,0.8059,0.8022,0.8165,0.8141,0.8151,0.8139,0.8148,0.8154,0.8144,0.8014,0,0,0,0,0,0.7507,0.7566,0.7628,0.7701,0.7727,0.7772,0.7809,0.7827,0.7883,0.7905,0.795,0.8005,0.8069,0.8111,0.8173,0.8265,0.8282,0.8304,0.8311,0.8316,0.8324,0.8376,0.8387,0.827,0.827,0.827,0,0,0.7529,0.7577,0.7612,0.7702,0.7745,0.7806,0.7791,0.7857,0.7903,0.7916,0.7999,0.8034,0.8098,0.8188,0.8229,0.8219,0.836,0.8323,0.8326,0.8332,0.8383,0.8394,0.8404,0.8274,0.8273,0.8273,0,0,0.7601,0.7643,0.7708,0.7751,0.7815,0.7845,0.786,0.7927,0.795,0.8034,0.8045,0.8101,0.821,0.8256,0.8293,0.8382,0.8388,0.8402,0.8436,0.8486,0.8495,0.8504,0.8536,0.8547,0.841,0.841,0.841,0,0.7621,0.7713,0.7741,0.7807,0.7846,0.7859,0.7926,0.7967,0.8049,0.8076,0.8063,0.82,0.8244,0.8345,0.8366,0.8396,0.8416,0.8394,0.8492,0.85,0.8508,0.854,0.8552,0.8411,0.8411,0.8411,0.8411,0,0.7734,0.7798,0.7843,0.792,0.7965,0.8031,0.8071,0.8113,0.8127,0.8158,0.8244,0.8298,0.8371,0.8396,0.8411,0.8499,0.8491,0.8484,0.8461,0.852,0.855,0.8562,0.8413,0.8412,0.8412,0.8412,0,0,0.781,0.7902,0.7918,0.7953,0.8025,0.8076,0.8143,0.8213,0.8249,0.8305,0.8363,0.8455,0.8449,0.8492,0.8512,0.8556,0.8624,0.8544,0.8546,0.8557,0.8725,0.8729,0.8742,0.8628,0.863,0.8632,0.8719,0,0.789,0.8008,0.8036,0.8138,0.8198,0.8211,0.827,0.8321,0.8352,0.8409,0.8444,0.8509,0.8496,0.8522,0.8566,0.8606,0.8658,0.86,0.8683,0.8685,0.8666,0.8758,0.8763,0.8842,0.8731,0.8733,0.8735,0,0.7999,0.8057,0.8164,0.8228,0.8254,0.8306,0.8373,0.8426,0.8485,0.8505,0.8552,0.8568,0.864,0.8612,0.8712,0.8672,0.8708,0.8733,0.8736,0.8745,0.8713,0.8769,0.8868,0.888,0.8753,0.8752,0.8751,0,0.8044,0.8148,0.8226,0.8256,0.8332,0.8369,0.8403,0.8459,0.85,0.8559,0.8586,0.8653,0.869,0.8742,0.8776,0.8753,0.8873,0.8848,0.8892,0.8891,0.8917,0.8915,0.9023,0.894,0.894,0.8939,0.8939,0,0.8131,0.8196,0.8247,0.8295,0.8369,0.84,0.8473,0.8508,0.8558,0.8614,0.863,0.8682,0.8724,0.8782,0.8809,0.8888,0.8905,0.8924,0.893,0.8922,0.892,0.8946,0.8941,0.8943,0.8942,0.8941,0.8941,0,0.8193,0.8229,0.8315,0.838,0.8399,0.845,0.8507,0.8555,0.8586,0.8657,0.8675,0.8726,0.8795,0.8834,0.8922,0.894,0.9028,0.9032,0.9008,0.901,0.9052,0.9048,0.9181,0.92,0.9104,0.9105,0.9106,0,0.8245,0.8296,0.8366,0.8404,0.8438,0.8499,0.854,0.8574,0.8617,0.8687,0.8727,0.8797,0.8855,0.8966,0.9011,0.9079,0.9084,0.9126,0.9094,0.9085,0.9085,0.9081,0.9087,0.9132,0.9133,0.9133,0.9134,0,0.8335,0.8351,0.8409,0.8473,0.8522,0.8575,0.8627,0.8658,0.8701,0.8748,0.8818,0.8863,0.8952,0.9022,0.9093,0.913,0.914,0.9143,0.9157,0.915,0.9133,0.9143,0.9023,0.914,0.914,0.9139,0.9139,0.9139,0.8394,0.844,0.8496,0.8561,0.8603,0.8652,0.87,0.8738,0.8797,0.8871,0.8888,0.8962,0.9021,0.9117,0.9155,0.9215,0.9207,0.9227,0.9232,0.9237,0.9238,0.9124,0.9228,0.9228,0.9228,0.9228,0.9228,0,0.8485,0.8522,0.8581,0.8653,0.8704,0.8707,0.8766,0.8809,0.8873,0.8926,0.8983,0.9064,0.9132,0.9183,0.9253,0.9291,0.9297,0.9308,0.9305,0.9314,0.9241,0.9222,0.9302,0.9302,0.9302,0.9302,0.9302,0.9302,0.8538,0.8615,0.8637,0.8736,0.8773,0.8845,0.8878,0.8924,0.8966,0.9056,0.9112,0.9144,0.9197,0.927,0.9333,0.9347,0.9372,0.9382,0.9396,0.9327,0.9319,0.9311,0.9294,0.9387,0.9387,0.9464,0.9464,0.9465]},{"header":{"parameterUnit":"m.s-1","parameterCategory":1,"la1":30.2991,"la2":30.254,"lo1":-89.0895,"lo2":-89.0444,"dy":0.0017,"dx":0.0017,"nx":28,"ny":28,"refTime":"2024-03-07T03:00:00:Z","depth":0,"parameterNumber":3,"parameterNumberName":"V-component_of_WINDS"},"data":[0,0,0,0,0,0,0,0,0,0,0,0,0,0,0,0,0,0,0,0,0,0,0,0,0,0,0,0,0,0,0,0,0,0,0,0,0,0,0,0,0,0,0,0,0,0,0,0,0,0,0,0,0,0,0,0,0,0,0.4767,0.4768,0,0.4857,0.4858,0.4859,0.4876,0.4875,0.4874,0.4874,0.4964,0.4967,0.497,0,0,0,0,0,0,0,0,0,0,0,0,0,0.4604,0.4607,0.4767,0.4768,0.4769,0.4857,0.4858,0.4859,0.4876,0.4875,0.4874,0.4873,0.4963,0.4967,0.497,0,0,0,0,0,0,0,0,0,0,0,0,0,0.4683,0.4608,0.4766,0.4788,0.4791,0.4857,0.4858,0.486,0.4876,0.4875,0.4874,0.4873,0.4962,0.4966,0.4971,0.5021,0,0,0.4985,0.4987,0,0,0,0,0,0,0,0,0.4678,0.4689,0.4783,0.4786,0.479,0.4854,0.4834,0.4914,0.4876,0.4843,0.4873,0.4872,0.4928,0.4935,0.4955,0.5026,0.5029,0.4985,0.4988,0.499,0.4992,0,0,0,0,0,0,0,0.4673,0.4685,0.4802,0.4785,0.4789,0.4791,0.4801,0.4849,0.4891,0.4846,0.4848,0.4858,0.493,0.495,0.4957,0.5031,0.4985,0.4989,0.4992,0.4994,0.5144,0.5145,0,0,0,0,0,0,0.4664,0.468,0.4799,0.4805,0.473,0.4795,0.4806,0.4834,0.489,0.4898,0.4859,0.4859,0.4943,0.4952,0.496,0.5021,0.499,0.4995,0.4997,0.5143,0.5144,0.5145,0,0,0,0,0,0,0.466,0.4674,0.4796,0.4743,0.4759,0.4799,0.4831,0.4837,0.4857,0.49,0.4907,0.4873,0.4942,0.4954,0.5005,0.5025,0.4997,0.5001,0.5141,0.5143,0.5145,0.5144,0,0,0,0,0,0,0.4656,0.4673,0.4694,0.4743,0.4761,0.4841,0.4832,0.4839,0.4866,0.4866,0.4915,0.4922,0.4942,0.4998,0.501,0.503,0.5005,0.514,0.5142,0.5144,0.5143,0.5146,0.5149,0,0,0,0,0,0.465,0.469,0.4695,0.4709,0.4788,0.4842,0.4852,0.4876,0.4867,0.4887,0.4914,0.492,0.502,0.5004,0.5017,0.5039,0.5139,0.5141,0.5144,0.5142,0.5145,0.5149,0,0,0,0,0,0,0.4642,0.4697,0.4703,0.4761,0.4797,0.4845,0.4871,0.4879,0.4918,0.4916,0.4943,0.4953,0.5003,0.5026,0.5006,0.5089,0.5079,0.5084,0.5072,0.5076,0.5079,0.5072,0.5008,0,0,0,0,0,0.4647,0.4687,0.4733,0.478,0.4797,0.4831,0.4855,0.487,0.4907,0.4923,0.4953,0.4989,0.5028,0.5053,0.5092,0.5146,0.5155,0.5167,0.517,0.5172,0.5177,0.5204,0.5209,0.5154,0.5154,0.5154,0,0,0.4659,0.4693,0.4717,0.4779,0.4808,0.4847,0.4844,0.4886,0.4915,0.4929,0.4979,0.5003,0.5044,0.5096,0.5121,0.5117,0.5194,0.5176,0.5177,0.518,0.5207,0.5213,0.5217,0.5156,0.5156,0.5156,0,0,0.4699,0.473,0.4771,0.48,0.4844,0.4866,0.4875,0.4922,0.4938,0.4989,0.4999,0.5033,0.5101,0.5129,0.5152,0.5199,0.5205,0.521,0.5225,0.5252,0.5256,0.526,0.5275,0.528,0.5215,0.5215,0.5215,0,0.4707,0.4767,0.4791,0.4832,0.4858,0.4872,0.4913,0.4939,0.4994,0.501,0.5005,0.5088,0.5117,0.5175,0.5186,0.5205,0.5215,0.5205,0.5254,0.5258,0.5262,0.5277,0.5282,0.5215,0.5215,0.5215,0.5215,0,0.4774,0.4815,0.4843,0.4895,0.4924,0.4964,0.4993,0.5019,0.503,0.5051,0.5101,0.5136,0.518,0.5195,0.5207,0.5254,0.5249,0.5249,0.5239,0.5267,0.5281,0.5287,0.5215,0.5215,0.5215,0.5215,0,0,0.4814,0.4876,0.4886,0.4909,0.4957,0.4989,0.5028,0.5072,0.5093,0.5129,0.5162,0.5217,0.5216,0.5242,0.5256,0.5279,0.5312,0.5275,0.5277,0.528,0.5363,0.5363,0.5369,0.5316,0.5317,0.5318,0.5359,0,0.4859,0.4932,0.4953,0.5014,0.5051,0.5063,0.5098,0.513,0.515,0.5183,0.5205,0.5243,0.524,0.5255,0.5279,0.5303,0.5328,0.53,0.5345,0.5346,0.5334,0.5377,0.5378,0.5415,0.5365,0.5366,0.5366,0,0.4923,0.4959,0.5023,0.5064,0.508,0.5111,0.5151,0.5184,0.5219,0.5232,0.5259,0.5271,0.5311,0.5298,0.5352,0.5332,0.5351,0.5365,0.5367,0.5373,0.5358,0.5382,0.5428,0.5433,0.5376,0.5375,0.5374,0,0.4943,0.5009,0.5055,0.5074,0.5123,0.5144,0.5165,0.52,0.5224,0.5258,0.5273,0.5312,0.5333,0.5361,0.5382,0.5371,0.5433,0.5423,0.5444,0.5443,0.5457,0.5456,0.5506,0.547,0.547,0.5469,0.5469,0,0.4992,0.503,0.5065,0.5094,0.5136,0.5158,0.52,0.5221,0.5251,0.5282,0.5295,0.5323,0.5349,0.5381,0.5397,0.5438,0.5448,0.5458,0.5462,0.5457,0.5455,0.547,0.5468,0.5471,0.5471,0.547,0.547,0,0.5023,0.5048,0.5099,0.5141,0.5152,0.5181,0.5216,0.5243,0.5262,0.5302,0.5312,0.5343,0.538,0.5403,0.5451,0.5462,0.5506,0.551,0.5495,0.5496,0.5515,0.5513,0.5576,0.5585,0.5543,0.5544,0.5544,0,0.5052,0.5082,0.5126,0.5148,0.5169,0.5205,0.5229,0.5251,0.5275,0.5316,0.5337,0.5376,0.5408,0.5466,0.5492,0.5528,0.5531,0.5551,0.5537,0.553,0.553,0.5528,0.553,0.5553,0.5554,0.5554,0.5554,0,0.5101,0.5111,0.5146,0.5184,0.5212,0.5243,0.5274,0.5291,0.5317,0.5343,0.5382,0.5407,0.5454,0.5491,0.5529,0.5549,0.5555,0.5558,0.5565,0.556,0.555,0.5554,0.55,0.5557,0.5557,0.5556,0.5556,0.5556,0.5131,0.5157,0.5192,0.5229,0.5254,0.5282,0.5309,0.5331,0.5364,0.5405,0.5415,0.5455,0.5486,0.5537,0.5557,0.5587,0.5585,0.5594,0.5597,0.5599,0.5598,0.5544,0.5594,0.5594,0.5594,0.5594,0.5594,0,0.5179,0.5201,0.5235,0.5278,0.5306,0.531,0.5343,0.5366,0.5401,0.543,0.5461,0.5504,0.5539,0.5566,0.5601,0.562,0.5624,0.5629,0.5627,0.5631,0.56,0.559,0.5625,0.5625,0.5625,0.5625,0.5625,0.5625,0.5208,0.5251,0.5265,0.532,0.5341,0.5381,0.5399,0.5424,0.5447,0.5494,0.5524,0.5541,0.5569,0.5606,0.5637,0.5644,0.5656,0.566,0.5667,0.5637,0.5634,0.5631,0.5622,0.5663,0.5663,0.5697,0.5697,0.5697]}]]